Theta_e
331 329 326 324 322 320 316 314 314 313 315 315 315 314 312 310 309 310 310 317 317 315 315 315 315 315 314 314 313 314 315 315 316 317 318 321 325 326 328 330 330 330 330
328 327 320 317 316 315 315 313 314 315 313 312 309 310 310 308 305 307 307 309 315 315 313 312 312 311 311 310 310 311 312 313 314 315 316 317 319 321 323 326 328 330 330
323 320 317 315 314 314 315 315 314 311 309 309 307 307 307 303 303 306 304 304 310 313 312 309 309 309 310 309 309 309 310 310 312 313 314 315 317 317 318 320 323 325 329
319 318 315 315 314 315 313 312 309 307 306 305 303 302 303 303 303 304 303 305 305 306 310 310 310 308 308 307 308 309 309 310 310 311 311 312 313 314 314 316 317 320 323
318 316 315 315 315 314 312 309 307 306 302 301 300 299 301 301 302 303 304 304 304 304 303 309 311 310 307 307 308 309 309 309 309 310 311 310 310 310 311 312 314 316 318
318 317 316 314 313 311 309 308 305 304 301 300 302 300 299 301 301 301 302 306 304 304 302 301 299 300 307 306 306 308 309 310 309 309 308 308 308 308 308 309 311 313 315
316 315 314 313 311 309 307 306 303 301 300 300 297 296 297 298 297 299 298 298 299 301 299 299 298 297 297 303 303 305 307 307 307 307 306 306 306 306 307 307 309 311 312
315 314 311 310 309 306 305 304 302 300 299 299 295 294 290 293 296 297 296 297 296 297 297 297 296 296 295 294 296 302 303 303 303 304 303 304 305 306 306 306 307 309 310
314 311 310 308 307 305 302 303 302 300 296 297 298 293 289 287 291 293 293 294 294 294 295 295 294 296 294 293 294 297 300 298 299 301 301 301 302 304 305 306 306 307 309
312 311 309 307 306 305 304 303 302 300 298 295 296 298 295 292 287 285 290 291 293 292 292 292 292 293 293 292 296 299 299 297 297 298 299 300 301 301 303 304 305 304 306
312 311 309 307 306 305 304 303 302 301 300 296 294 293 292 292 290 286 284 286 290 291 291 291 291 291 293 293 292 295 299 298 298 297 298 299 299 300 301 301 302 303 303
306 307 306 305 304 303 302 301 301 300 298 297 296 294 293 291 289 287 285 285 286 288 290 290 290 290 291 291 295 299 296 296 296 295 295 297 298 299 299 300 301 301 302
303 303 303 301 301 301 301 300 299 299 298 296 294 294 294 294 293 290 287 285 284 287 288 289 289 289 292 290 291 297 296 295 296 295 294 294 295 296 298 298 299 300 301
301 302 300 300 299 299 298 298 298 298 298 296 294 294 294 294 292 290 288 286 283 284 286 286 288 288 289 289 292 296 290 294 295 295 294 293 293 294 294 295 297 297 298
300 300 299 298 298 298 298 297 296 296 296 295 294 294 294 294 291 290 290 289 286 281 281 284 285 287 288 287 289 289 288 292 293 293 293 293 293 293 294 294 295 296 296
299 298 298 297 297 297 297 296 295 295 294 294 294 292 292 291 290 290 289 289 288 285 281 284 285 285 286 288 289 288 287 291 291 292 292 292 293 294 294 294 294 295 294
298 298 297 296 296 296 296 294 294 294 293 292 292 291 290 290 289 289 288 287 285 284 281 283 284 285 284 284 285 286 287 286 287 291 291 291 292 292 293 294 294 293 293
298 297 296 296 296 296 294 293 292 293 291 290 290 289 289 291 287 286 284 283 283 282 281 279 281 282 282 283 284 284 286 287 286 289 291 291 291 291 292 293 292 292 292
297 296 296 296 295 294 293 293 292 291 291 290 289 289 288 286 283 283 282 280 281 283 281 279 278 281 281 282 282 284 284 284 287 289 289 290 291 291 291 292 292 292 292
296 296 296 296 296 294 293 293 292 291 289 289 289 288 286 285 282 280 280 279 280 279 279 278 278 279 280 281 282 280 280 282 282 286 288 288 290 291 291 292 292 292 292
296 296 296 295 294 293 292 290 289 287 286 286 286 286 285 285 286 283 280 279 278 278 277 277 277 278 278 278 277 280 280 281 281 283 283 283 286 286 288 290 291 292 292
296 295 294 294 292 292 287 286 286 284 285 285 283 284 284 286 285 285 285 284 281 277 276 276 277 276 277 279 280 278 278 277 276 282 282 281 284 284 287 289 289 289 290
294 293 293 293 291 290 287 285 283 283 283 283 283 283 283 285 282 280 281 281 281 282 281 279 278 278 279 278 278 277 277 277 277 280 280 278 281 281 286 288 289 289 290
293 292 291 292 292 291 287 285 284 281 282 283 283 283 281 281 278 279 278 277 278 278 279 280 278 277 278 279 279 279 279 279 280 281 282 277 278 280 283 284 289 290 290
292 291 291 291 291 286 286 285 282 281 282 282 284 283 283 281 280 280 277 276 276 277 281 282 281 281 282 284 284 282 279 278 276 278 282 279 278 279 282 282 283 289 290
292 291 290 290 288 287 285 284 282 281 280 281 282 282 281 279 279 279 275 274 273 275 276 276 277 280 281 282 284 283 280 278 278 277 281 280 280 281 279 281 281 283 283
Wind_Speed
4 4 4 4 5 6 5 6 5 5 5 6 6 6 6 7 7 4 2 7 6 5 7 9 9 12 14 15 17 18 18 18 17 17 17 16 16 16 16 12 9 8 8
4 5 6 6 5 5 5 3 3 4 4 5 6 7 6 6 7 6 4 2 7 6 8 9 9 12 14 13 15 17 18 19 18 18 17 17 16 17 17 18 15 11 9
6 6 5 4 3 4 4 4 5 5 5 5 6 6 5 6 6 6 5 5 6 8 8 6 7 12 17 11 14 16 17 16 17 19 18 18 17 18 18 18 20 19 15
6 5 4 5 3 2 1 4 4 4 5 4 4 5 4 6 10 6 5 5 3 2 7 6 8 14 14 10 16 17 19 15 16 18 17 18 18 19 20 20 19 20 21
4 5 4 3 4 2 4 4 4 3 4 5 6 5 5 5 7 8 6 7 0 3 3 8 13 14 9 18 19 20 20 14 18 17 18 18 19 20 22 21 21 20 20
4 3 5 4 2 3 4 3 2 3 3 4 7 7 6 4 7 7 7 4 5 5 5 5 4 4 13 17 20 21 20 21 17 18 19 21 20 19 19 22 21 20 20
4 3 3 3 2 4 3 1 1 3 3 4 4 5 5 7 8 5 5 5 7 6 7 5 3 3 4 13 17 23 17 12 15 17 20 20 19 18 19 19 22 22 20
5 5 4 4 5 3 4 3 3 2 2 4 4 4 5 6 5 8 4 5 6 4 4 6 6 4 4 3 8 21 11 10 13 17 17 20 19 21 20 19 20 23 22
5 4 3 2 2 2 2 3 3 4 2 3 4 3 6 4 7 3 6 6 6 4 5 5 6 5 4 3 6 10 8 4 9 15 18 18 20 21 19 19 20 21 23
4 3 1 1 0 1 3 3 3 1 2 4 3 3 4 4 5 7 1 4 6 7 6 4 5 5 5 4 8 9 6 4 7 10 14 18 18 21 21 20 19 18 21
6 6 6 3 1 1 3 4 5 4 1 2 2 3 3 4 4 3 6 4 5 5 5 5 5 5 6 5 5 7 6 8 5 8 14 18 21 21 21 20 20 19 18
2 5 7 6 5 4 5 4 5 3 3 3 4 2 3 2 5 5 4 5 7 6 5 5 5 5 5 4 9 13 5 4 8 14 18 20 21 21 21 22 21 20 19
3 5 6 5 4 5 6 6 6 5 4 4 2 3 2 3 7 3 3 4 5 6 6 4 5 5 6 5 5 9 13 10 9 11 18 19 19 20 23 23 23 23 21
3 4 3 3 5 6 6 6 4 5 4 3 4 3 4 4 2 2 2 2 7 8 7 11 4 5 4 6 7 14 6 12 12 15 16 18 22 24 24 25 25 23 23
1 4 4 4 5 6 6 7 5 6 4 4 3 4 3 3 2 2 2 3 4 9 11 8 8 6 4 4 7 8 7 13 17 16 18 20 24 26 26 25 25 24 22
2 3 4 4 5 5 6 6 4 5 6 3 4 3 3 2 3 3 3 4 6 8 11 6 6 6 5 7 10 10 10 20 18 19 18 23 23 26 25 24 22 21 19
2 3 4 5 5 6 4 5 7 7 5 5 5 5 4 4 3 3 4 4 4 5 9 9 9 6 8 7 9 9 10 11 11 17 17 20 20 18 19 20 17 18 18
2 3 4 5 6 4 6 4 5 5 5 4 4 4 5 5 5 5 4 6 7 8 9 13 9 8 6 8 9 9 9 10 10 15 21 20 21 18 14 12 15 17 17
1 3 4 5 6 3 4 3 5 5 5 5 5 5 5 5 5 4 5 5 6 7 7 8 10 8 7 7 10 9 10 9 9 19 18 17 15 16 14 20 22 17 20
2 4 5 5 2 4 4 4 3 3 4 5 6 5 4 4 5 4 4 4 6 6 7 8 9 9 8 9 7 8 8 8 8 10 13 14 13 19 16 19 21 23 19
3 5 5 6 1 2 3 4 4 4 6 6 7 6 5 3 3 2 3 5 4 5 6 8 9 9 8 8 9 7 8 9 9 7 8 4 5 7 8 12 16 21 20
5 4 5 6 2 2 10 8 4 3 5 6 6 5 5 8 2 8 5 6 6 5 8 8 10 10 11 9 6 7 8 9 11 5 6 9 5 6 6 5 10 8 4
3 5 6 6 2 4 11 9 6 1 3 6 5 4 4 5 7 5 8 12 13 18 12 10 12 9 9 7 8 10 10 9 10 10 9 11 4 5 6 8 13 7 11
4 3 5 6 4 2 14 11 6 3 4 6 5 4 4 3 6 4 4 6 8 9 11 9 6 7 7 9 10 10 12 12 11 10 8 8 3 5 6 5 12 12 13
3 3 4 6 4 6 12 11 7 3 4 5 5 6 4 3 6 7 5 7 9 9 13 19 22 21 20 20 17 9 8 8 10 9 8 5 4 5 7 6 5 13 12
4 4 2 3 5 7 12 12 7 2 1 3 5 5 7 6 4 6 3 4 7 9 10 11 10 12 12 12 13 5 5 8 9 9 3 3 4 2 4 3 2 5 5
Wind_Direction
21 46 73 21 39 45 48 30 32 334 320 357 345 1 355 356 328 323 355 114 97 78 68 57 37 26 10 5 2 358 355 352 351 350 348 345 350 350 347 316 291 285 283
14 16 67 60 50 42 20 21 0 339 347 355 355 351 348 341 335 321 349 99 143 98 75 60 37 23 6 359 358 354 351 346 346 345 342 340 337 343 342 341 335 294 282
73 78 78 69 53 30 7 20 7 5 347 347 341 332 321 345 326 322 338 298 130 138 114 92 31 10 357 357 349 350 344 342 345 342 340 337 338 341 335 331 331 332 312
74 83 74 65 33 317 75 42 16 355 337 331 333 302 4 348 315 319 309 333 46 94 160 158 43 6 4 352 342 341 336 338 342 334 339 339 341 338 333 329 322 320 319
98 112 112 99 355 339 48 48 14 345 340 333 323 340 352 317 319 327 310 308 170 51 26 10 17 2 11 346 343 336 328 337 334 334 347 338 331 329 326 323 319 313 312
162 150 96 90 327 28 47 36 5 344 335 338 337 333 323 333 311 295 272 337 31 24 22 41 12 5 352 349 342 334 341 331 341 339 334 331 326 322 322 319 317 313 310
141 48 74 115 125 19 16 297 44 346 337 342 349 320 331 290 337 346 9 353 343 12 15 0 18 359 7 349 348 334 345 338 335 331 328 324 318 317 319 319 317 313 311
125 118 56 5 43 17 323 359 18 313 331 8 319 323 324 317 292 342 345 342 354 349 334 337 326 337 20 37 359 320 351 328 333 333 333 328 324 322 317 316 317 310 309
129 115 147 103 13 353 349 346 321 310 345 317 328 312 314 297 323 318 338 332 346 343 328 358 344 355 4 3 342 305 343 299 341 327 320 324 321 318 321 323 318 313 315
156 206 145 120 68 337 302 276 306 316 308 285 304 304 310 308 310 320 312 333 336 338 319 336 345 349 330 309 287 295 208 223 269 298 313 315 315 313 316 316 317 317 314
184 209 209 192 235 292 300 301 284 269 279 302 310 316 305 308 309 327 313 317 310 302 333 359 336 313 307 312 302 297 205 260 285 303 308 308 308 304 305 308 308 312 316
39 45 45 38 9 348 337 330 320 332 309 306 295 303 287 314 317 311 303 311 307 312 326 323 315 321 306 310 313 327 16 310 273 301 311 311 306 301 300 303 302 305 312
40 35 38 16 356 334 322 312 305 268 249 253 314 276 265 246 256 270 300 291 292 301 300 291 287 293 301 299 287 320 323 307 309 313 310 305 302 302 302 297 297 297 298
35 32 1 356 337 331 324 315 308 295 261 236 269 269 259 265 276 265 304 322 303 291 301 293 268 281 286 281 334 327 321 316 307 309 308 307 296 290 285 283 287 288 291
307 55 9 348 333 330 324 306 294 290 329 358 320 291 274 280 283 290 275 264 260 298 297 290 294 274 301 345 321 316 308 311 311 305 297 292 290 287 285 283 273 278 284
33 329 337 332 322 307 288 293 335 344 346 328 300 282 285 344 331 291 278 283 290 280 292 303 307 327 345 332 317 320 313 312 306 298 292 286 283 280 280 277 268 272 279
284 333 330 327 306 291 2 359 343 323 335 357 4 353 350 324 284 304 290 298 316 322 311 309 310 326 338 319 317 307 302 297 289 291 295 294 294 296 290 268 252 262 272
301 321 321 299 293 344 354 339 314 314 342 346 342 340 313 315 328 344 334 345 342 331 315 311 318 321 318 308 295 296 291 299 293 295 300 291 288 296 266 251 246 253 266
320 314 305 292 292 27 324 343 326 341 327 339 318 306 313 348 331 350 17 344 329 318 318 317 312 315 311 308 308 301 300 296 301 297 299 297 288 280 270 271 267 258 257
332 297 289 279 343 13 344 329 304 323 312 311 320 331 332 325 33 353 329 324 306 317 317 310 305 305 305 303 299 306 313 314 302 308 302 297 330 315 308 275 261 255 257
281 266 271 277 161 207 263 53 32 3 348 337 317 321 341 25 253 227 271 268 317 310 304 298 296 298 299 308 312 320 316 309 304 303 298 300 301 303 307 312 291 261 261
271 290 291 285 215 271 131 116 88 17 331 320 297 334 344 317 28 209 297 353 292 274 284 284 284 288 294 315 310 316 313 311 311 290 312 296 277 278 279 316 272 246 298
296 279 273 286 261 116 146 137 131 234 327 284 301 316 320 316 56 29 354 338 315 299 290 279 276 288 292 302 314 310 305 298 296 296 295 293 290 280 287 277 215 252 226
252 290 290 286 240 186 160 159 169 245 267 295 299 319 302 325 88 36 337 314 306 307 298 299 320 315 302 303 293 287 286 287 285 284 281 282 278 283 281 265 272 259 230
273 269 278 275 228 131 162 160 181 235 297 308 319 298 308 306 81 13 341 309 306 305 305 334 325 314 308 298 292 286 281 272 281 289 289 276 278 280 289 274 254 260 261
273 269 336 35 59 124 178 185 191 177 314 292 283 323 82 74 31 332 298 296 300 301 327 311 306 305 307 301 307 320 310 317 310 301 276 315 297 284 312 346 326 306 294